彩虹-1 4星 (RADUGA-1 4)

导读 | 星芒AI

RADUGA-1 4 是俄罗斯一颗军用通信卫星,属于“彩虹”(RADUGA)系列。该系列卫星主要用于军事通信,支持俄罗斯国防部的加密通信需求。RADUGA-1 4 由俄罗斯航天局发射,部署在地球静止轨道,提供稳定、安全的通信链路,增强俄军在战场上的信息传输能力。该卫星体现了俄罗斯在军事航天领域的持续发展,是其战略通信基础设施的重要组成部分。

基本信息
目录编号:
25642
目录名称:
RADUGA 1-4
国际标识:
1999-010A
轨道中心:
EARTH
卫星名称:
彩虹-1 4星
卫星全名:
彩虹-1 4星 (RADUGA-1 4)
卫星状态:
在轨 (已飞行9725 天)
发射日期:
1999-02-28 UTC
国别 :
俄罗斯(独联体) (CIS)
星等 :
--
轨道信息
数据来源 国际轨道数据 AOE轨道数据
星历时间 2025-10-14T01:49:49+0800
20小时前
查看轨道信息
2025-10-12T01:00:00+0800
2天前
查看轨道信息
半长轴 42147.496km 42147.188km
偏心率 0.0006503 0.0006465
轨道倾角 15.576° 15.575°
近地点辐角 252.260° 253.512°
升交点赤经 3.679° 3.697°
平近点角 134.571° 118.392°
近地点 35741.952km 35741.804km
远地点 35796.77km 35796.302km
周期 1435.216分钟 1435.201分钟
每日圈数 1.003333 1.003344
详细信息
平衡模式:
三轴稳定
覆盖范围:
全球
运营商:
俄罗斯国家航天集团
运营商所在国:
俄罗斯
制造商(研发单位):
普里克拉德诺伊·梅哈尼基设计局
制造商所在国:
俄罗斯联邦
使用方式:
暂无
卫星简介
彩虹卫星(Raduga, Gran)是苏联用于军事和通信目的的一系列地球静止通信卫星。彩虹卫星旨在支持军事通信、Orbita地面电视网络,并在整个东半球(极地地区除外)提供电话和电报通信。该卫星已退役。
2D轨道图
3D轨道图
轨道高度分析图
轨道倾角分析图
轨道综合分析图
查看轨道综合分析图